• In Deutschland
  • Länderverzeichnis
  • Für 7 Tage
  • Wassertemperatur
  • Satellitenkarten
  • Wetterkarte
  • Widgets
  • user-avatar
    Anmelden

    Stündliche Wetter Hürth

    Heute, 25 Juni, Montag

    Zeit Temperatur Niederschläge Wind Luftdruck Luftfeuchtigkeit
    00:00 +14°C° 0 mm 1 m/S 760 mmHg 91%
    01:00 +14°C° 0 mm 2 m/S 760 mmHg 91%
    02:00 +14°C° 0 mm 2 m/S 760 mmHg 92%
    03:00 +14°C° 0 mm 2 m/S 760 mmHg 92%
    04:00 +14°C° 0 mm 2 m/S 760 mmHg 91%
    05:00 +14°C° 0 mm 2 m/S 760 mmHg 90%
    06:00 +15°C° 0 mm 2 m/S 760 mmHg 89%
    07:00 +15°C° 0 mm 2 m/S 760 mmHg 85%
    08:00 +16°C° 0 mm 2 m/S 760 mmHg 81%
    09:00 +17°C° 0 mm 2 m/S 761 mmHg 77%
    10:00 +18°C° 0 mm 2 m/S 761 mmHg 71%
    11:00 +20°C° 0 mm 2 m/S 761 mmHg 65%
    12:00 +21°C° 0 mm 2 m/S 761 mmHg 60%
    13:00 +22°C° 0 mm 3 m/S 761 mmHg 56%
    14:00 +24°C° 0 mm 3 m/S 761 mmHg 53%
    15:00 +24°C° 0 mm 3 m/S 760 mmHg 49%
    16:00 +24°C° 0 mm 3 m/S 760 mmHg 53%
    17:00 +22°C° 0 mm 3 m/S 760 mmHg 56%
    18:00 +22°C° 0 mm 3 m/S 760 mmHg 60%
    19:00 +20°C° 0 mm 3 m/S 761 mmHg 65%
    20:00 +18°C° 0 mm 2 m/S 761 mmHg 71%
    21:00 +17°C° 0 mm 2 m/S 761 mmHg 76%
    22:00 +16°C° 0 mm 2 m/S 761 mmHg 80%
    23:00 +15°C° 0 mm 2 m/S 761 mmHg 84%

    Morgen, 26 Juni, Dienstag

    Zeit Temperatur Niederschläge Wind Luftdruck Luftfeuchtigkeit
    00:00 +14°C° 0 mm 2 m/S 761 mmHg 87%
    01:00 +13°C° 0 mm 2 m/S 761 mmHg 89%
    02:00 +13°C° 0 mm 1 m/S 761 mmHg 90%
    03:00 +12°C° 0 mm 1 m/S 761 mmHg 92%
    04:00 +13°C° 0 mm 1 m/S 761 mmHg 88%
    05:00 +14°C° 0 mm 1 m/S 761 mmHg 84%
    06:00 +15°C° 0 mm 1 m/S 761 mmHg 81%
    07:00 +17°C° 0 mm 2 m/S 761 mmHg 73%
    08:00 +18°C° 0 mm 2 m/S 761 mmHg 66%
    09:00 +20°C° 0 mm 2 m/S 761 mmHg 58%
    10:00 +21°C° 0 mm 2 m/S 761 mmHg 54%
    11:00 +24°C° 0 mm 3 m/S 761 mmHg 50%
    12:00 +25°C° 0 mm 3 m/S 761 mmHg 46%
    13:00 +25°C° 0 mm 3 m/S 760 mmHg 46%
    14:00 +26°C° 0 mm 3 m/S 760 mmHg 46%
    15:00 +26°C° 0 mm 3 m/S 760 mmHg 46%
    16:00 +26°C° 0 mm 3 m/S 760 mmHg 51%
    17:00 +25°C° 0 mm 3 m/S 760 mmHg 55%
    18:00 +24°C° 0 mm 2 m/S 760 mmHg 60%
    19:00 +23°C° 0 mm 2 m/S 760 mmHg 67%
    20:00 +20°C° 0 mm 2 m/S 760 mmHg 73%
    21:00 +18°C° 0 mm 2 m/S 761 mmHg 80%
    22:00 +18°C° 0 mm 1 m/S 761 mmHg 83%
    23:00 +18°C° 0 mm 1 m/S 761 mmHg 87%

    übermorgen, 27 Juni, Mittwoch

    Zeit Temperatur Niederschläge Wind Luftdruck Luftfeuchtigkeit
    00:00 +16°C° 0 mm 1 m/S 761 mmHg 90%
    01:00 +16°C° 0 mm 1 m/S 761 mmHg 91%
    02:00 +16°C° 0 mm 1 m/S 761 mmHg 92%
    03:00 +15°C° 0 mm 1 m/S 761 mmHg 93%
    04:00 +18°C° 0 mm 1 m/S 761 mmHg 89%
    05:00 +19°C° 0 mm 1 m/S 761 mmHg 86%
    06:00 +20°C° 0 mm 1 m/S 761 mmHg 82%
    07:00 +21°C° 0 mm 2 m/S 761 mmHg 71%
    08:00 +22°C° 0 mm 3 m/S 761 mmHg 60%
    09:00 +25°C° 0 mm 4 m/S 761 mmHg 49%
    10:00 +26°C° 0 mm 4 m/S 760 mmHg 44%
    11:00 +26°C° 0 mm 4 m/S 760 mmHg 39%
    12:00 +27°C° 0 mm 4 m/S 760 mmHg 35%
    13:00 +27°C° 0 mm 4 m/S 760 mmHg 36%
    14:00 +27°C° 0 mm 5 m/S 759 mmHg 38%
    15:00 +27°C° 0 mm 5 m/S 759 mmHg 39%
    16:00 +26°C° 0 mm 4 m/S 759 mmHg 45%
    17:00 +25°C° 0 mm 4 m/S 759 mmHg 50%
    18:00 +24°C° 0 mm 3 m/S 759 mmHg 56%
    19:00 +22°C° 0 mm 3 m/S 760 mmHg 61%
    20:00 +20°C° 0 mm 3 m/S 760 mmHg 67%
    21:00 +19°C° 0 mm 2 m/S 760 mmHg 72%
    22:00 +18°C° 0 mm 2 m/S 760 mmHg 75%
    23:00 +18°C° 0 mm 2 m/S 760 mmHg 79%

    28 Juni, Donnerstag

    Zeit Temperatur Niederschläge Wind Luftdruck Luftfeuchtigkeit
    00:00 +17°C° 0 mm 2 m/S 760 mmHg 82%
    01:00 +16°C° 0 mm 2 m/S 760 mmHg 83%
    02:00 +16°C° 0 mm 2 m/S 760 mmHg 85%
    03:00 +16°C° 0 mm 2 m/S 760 mmHg 86%
    04:00 +17°C° 0 mm 2 m/S 760 mmHg 83%
    05:00 +18°C° 0 mm 2 m/S 760 mmHg 79%
    06:00 +19°C° 0 mm 2 m/S 760 mmHg 75%
    07:00 +20°C° 0 mm 3 m/S 759 mmHg 70%
    08:00 +22°C° 0 mm 3 m/S 759 mmHg 65%
    09:00 +23°C° 0 mm 4 m/S 759 mmHg 59%
    10:00 +25°C° 0 mm 4 m/S 759 mmHg 56%
    11:00 +26°C° 0 mm 4 m/S 758 mmHg 53%
    12:00 +27°C° 0 mm 4 m/S 758 mmHg 49%
    13:00 +27°C° 0 mm 5 m/S 758 mmHg 50%
    14:00 +28°C° 0 mm 5 m/S 757 mmHg 50%
    15:00 +28°C° 0 mm 5 m/S 757 mmHg 50%
    16:00 +27°C° 0 mm 5 m/S 757 mmHg 53%
    17:00 +27°C° 0 mm 4 m/S 757 mmHg 56%
    18:00 +26°C° 0 mm 4 m/S 756 mmHg 59%
    19:00 +25°C° 0 mm 4 m/S 757 mmHg 63%
    20:00 +23°C° 0 mm 4 m/S 757 mmHg 67%
    21:00 +22°C° 0 mm 3 m/S 757 mmHg 70%
    22:00 +21°C° 0 mm 3 m/S 757 mmHg 72%
    23:00 +21°C° 0 mm 4 m/S 757 mmHg 74%

    29 Juni, Freitag

    Zeit Temperatur Niederschläge Wind Luftdruck Luftfeuchtigkeit
    00:00 +20°C° 0 mm 4 m/S 757 mmHg 75%
    01:00 +20°C° 0 mm 3 m/S 757 mmHg 78%
    02:00 +19°C° 0 mm 3 m/S 757 mmHg 80%
    03:00 +18°C° 0 mm 3 m/S 757 mmHg 83%
    04:00 +19°C° 0 mm 3 m/S 757 mmHg 79%
    05:00 +20°C° 0 mm 3 m/S 757 mmHg 76%
    06:00 +20°C° 0 mm 3 m/S 757 mmHg 72%
    07:00 +22°C° 0 mm 4 m/S 757 mmHg 65%
    08:00 +25°C° 0 mm 4 m/S 756 mmHg 59%
    09:00 +26°C° 0 mm 4 m/S 756 mmHg 52%
    10:00 +27°C° 0 mm 4 m/S 756 mmHg 48%
    11:00 +29°C° 0 mm 4 m/S 756 mmHg 44%
    12:00 +30°C° 0 mm 4 m/S 756 mmHg 39%
    13:00 +30°C° 0 mm 4 m/S 756 mmHg 40%
    14:00 +30°C° 0 mm 4 m/S 755 mmHg 40%
    15:00 +30°C° 0 mm 4 m/S 755 mmHg 40%
    16:00 +29°C° 0 mm 4 m/S 755 mmHg 45%
    17:00 +28°C° 0 mm 3 m/S 755 mmHg 51%
    18:00 +28°C° 0 mm 3 m/S 755 mmHg 56%
    19:00 +26°C° 0 mm 3 m/S 755 mmHg 61%
    20:00 +24°C° 0 mm 3 m/S 756 mmHg 66%
    21:00 +21°C° 0 mm 3 m/S 756 mmHg 71%
    22:00 +21°C° 0 mm 2 m/S 756 mmHg 75%
    23:00 +20°C° 0 mm 2 m/S 756 mmHg 78%

    30 Juni, Samstag

    Zeit Temperatur Niederschläge Wind Luftdruck Luftfeuchtigkeit
    00:00 +19°C° 0 mm 2 m/S 756 mmHg 82%
    01:00 +19°C° 0 mm 1 m/S 756 mmHg 83%
    02:00 +19°C° 0 mm 1 m/S 756 mmHg 85%
    03:00 +19°C° 0 mm 1 m/S 756 mmHg 86%
    04:00 +20°C° 0 mm 1 m/S 756 mmHg 81%
    05:00 +21°C° 0 mm 1 m/S 756 mmHg 76%
    06:00 +23°C° 0 mm 1 m/S 757 mmHg 72%
    07:00 +25°C° 0 mm 1 m/S 756 mmHg 64%
    08:00 +27°C° 0 mm 2 m/S 756 mmHg 57%
    09:00 +29°C° 0 mm 2 m/S 756 mmHg 50%
    10:00 +30°C° 0 mm 2 m/S 756 mmHg 46%
    11:00 +31°C° 0 mm 2 m/S 756 mmHg 42%
    12:00 +32°C° 0 mm 2 m/S 756 mmHg 38%
    13:00 +32°C° 0 mm 2 m/S 756 mmHg 37%
    14:00 +32°C° 0 mm 2 m/S 755 mmHg 37%
    15:00 +32°C° 0 mm 2 m/S 755 mmHg 37%
    16:00 +32°C° 0 mm 2 m/S 755 mmHg 42%
    17:00 +31°C° 0 mm 2 m/S 755 mmHg 48%
    18:00 +30°C° 0 mm 2 m/S 755 mmHg 54%
    19:00 +28°C° 0 mm 3 m/S 755 mmHg 58%
    20:00 +26°C° 0 mm 3 m/S 756 mmHg 63%
    21:00 +24°C° 0 mm 3 m/S 756 mmHg 68%
    22:00 +22°C° 0 mm 3 m/S 756 mmHg 70%
    23:00 +21°C° 0 mm 3 m/S 756 mmHg 72%
    Mehr zeigen